FENGYUN 1C DEB, 30392

Orbit data source: Space-Track

FENGYUN 1C DEB, 30392 is space debris in SSO originally from a launch on Mon, 10 May 1999 UTC launched from the Taiyaun Space Center, China (TSC). Fengyun 1C debris stems from the Chinese weather satellite Fengyun-1C, which was intentionally destroyed by a Chinese anti-satellite missile in 2007. This event dramatically increased the amount of space debris, with thousands of trackable fragments posing hazards to satellites and human spaceflight. The Fengyun 1C debris cloud has become a focal point in discussions about space sustainability and the need for international regulations to prevent the creation of new debris.

Loading next visibility...
Identifier
30392, 1999-025ADF
Orbit
SSO
Country
Flag of CNCN / PRC
Related business
Manufacturer
Unknown
Mission
Spacecraft
Bus & Motor
Unknown
Mass
Unknown
Launch date (UTC)
1999-05-10 (27 years ago)
Launch vehicle
Unknown
Launch site
Taiyaun Space Center, China (TSC)
Object type
Payload
Rocket body
Debris
Shape & HBR
Unknown shape, 0.1 m
Radar Cross Section
Medium (>0.1 m² and <1 m²)

Expand to show TLE details & history
Last TLE update: 22 hours ago

TLE from 22 hours ago
0 FENGYUN 1C DEB
1 30392U 99025ADF 26207.52526019  .00001052  00000-0  55314-3 0  9998
2 30392  98.7722 224.9588 0181714  80.2680  70.1516 14.07935297998472
Epoch: 2026-07-26T12:36Z
TLE epoch observation values (Epoch: 2026-07-26T12:36:22.480Z)
Latitude
27.29746°
Longitude
-83.81334°
Altitude
827.196 km
Speed
7.464 km/s
True Right ascension
03h 18m 00s
True Declination
27° 09' 32"
Sunlit
Object was in daylight at epoch
Visualization orbit readout
Latitude
Unknown
Longitude
Unknown
Altitude
Unknown
Speed
Unknown
Apparent Right ascension
Unknown
Apparent Declination
Unknown
Sunlit
N/A
Visualization observer readout
Local Sidereal Time
23:34:17
Azimuth
Unknown
Elevation
Unknown
Doppler factor
Unknown
Orbital elements
Apogee altitude
995.215 km
Perigee altitude
732.029 km
Semi-major axis
7,241.759 km
Eccentricity
0.01817
Inclination
98.7722°
RAAN
224.9588°
Arg. of periapsis
80.268°
True anomaly
72.12502°
Mean anomaly
70.1516°
Eccentric anomaly
71.13683°
Mean motion
3.5219 °/min
Orbital period
102.22 mins
BSTAR
0.00055314
Loading maneuver chart data...
Computing Atmospheric mass density...
Loading historical data...
Loading historical data...
Loading historical data...
Loading historical data...
Loading historical data...
Loading historical data...
Loading historical data...

Documentation

Showing up to 5 results
|